TimePDT,TemperatureF,Dew PointF,Humidity,Sea Level PressureIn,VisibilityMPH,Wind Direction,Wind SpeedMPH,Gust SpeedMPH,PrecipitationIn,Events,Conditions,WindDirDegrees,DateUTC
12:36 AM,51.8,51.8,100,29.56,6.0,East,4.6,-,N/A,,Mostly Cloudy,80,2011-10-11 07:36:00
12:55 AM,51.1,50.0,96,29.57,4.0,Calm,Calm,-,N/A,,Mostly Cloudy,0,2011-10-11 07:55:00
1:22 AM,51.8,50.0,94,29.58,6.0,East,3.5,-,N/A,,Overcast,90,2011-10-11 08:22:00
1:40 AM,51.8,50.0,94,29.57,6.0,East,4.6,-,N/A,,Overcast,80,2011-10-11 08:40:00
1:44 AM,51.8,50.0,94,29.58,6.0,East,5.8,-,N/A,,Overcast,80,2011-10-11 08:44:00
1:55 AM,52.0,50.0,93,29.58,6.0,East,3.5,-,N/A,,Overcast,100,2011-10-11 08:55:00
2:45 AM,50.0,48.2,94,29.57,1.8,South,4.6,-,N/A,,Partly Cloudy,170,2011-10-11 09:45:00
2:48 AM,50.0,48.2,94,29.57,0.8,South,3.5,-,N/A,,Mist,190,2011-10-11 09:48:00
2:53 AM,48.2,48.2,100,29.57,0.2,Calm,Calm,-,N/A,Fog,Fog,0,2011-10-11 09:53:00
3:02 AM,50.0,48.2,94,29.58,0.2,Calm,Calm,-,N/A,Fog,Fog,0,2011-10-11 10:02:00
3:10 AM,50.0,48.2,94,29.58,0.2,East,3.5,-,N/A,Fog,Fog,80,2011-10-11 10:10:00
3:47 AM,48.2,48.2,100,29.58,0.5,North,3.5,-,N/A,Fog,Fog,10,2011-10-11 10:47:00
3:51 AM,48.2,48.2,100,29.58,2.0,Calm,Calm,-,N/A,,Scattered Clouds,0,2011-10-11 10:51:00
3:55 AM,48.9,48.9,100,29.58,5.0,Calm,Calm,-,N/A,,Scattered Clouds,0,2011-10-11 10:55:00
4:32 AM,48.2,48.2,100,29.59,5.0,Calm,Calm,-,N/A,,Mostly Cloudy,0,2011-10-11 11:32:00
4:55 AM,48.0,46.9,96,29.58,4.0,North,4.6,-,N/A,,Mostly Cloudy,350,2011-10-11 11:55:00
6:55 AM,50.0,46.9,89,29.62,10.0,NNW,8.1,-,0.00,,Mostly Cloudy,330,2011-10-11 13:55:00
7:55 AM,48.9,45.0,86,29.63,10.0,NNW,3.5,-,N/A,,Partly Cloudy,340,2011-10-11 14:55:00
8:55 AM,51.1,46.9,86,29.67,10.0,SSW,6.9,-,N/A,,Clear,210,2011-10-11 15:55:00
9:55 AM,55.9,41.0,57,29.69,10.0,WNW,15.0,-,0.01,,Clear,290,2011-10-11 16:55:00
10:55 AM,57.9,41.0,53,29.72,10.0,West,15.0,21.9,N/A,,Clear,280,2011-10-11 17:55:00
1:55 PM,64.0,37.0,37,29.78,10.0,West,15.0,36.8,N/A,,Partly Cloudy,270,2011-10-11 20:55:00
2:55 PM,63.0,37.0,38,29.80,10.0,West,16.1,29.9,N/A,,Clear,270,2011-10-11 21:55:00
3:55 PM,64.0,37.9,38,29.83,10.0,West,18.4,27.6,N/A,,Clear,260,2011-10-11 22:55:00
4:55 PM,62.1,37.0,39,29.86,10.0,West,23.0,28.8,N/A,,Clear,260,2011-10-11 23:55:00
5:55 PM,57.9,39.9,51,29.87,10.0,WNW,15.0,-,N/A,,Clear,300,2011-10-12 00:55:00
6:55 PM,54.0,41.0,62,29.90,10.0,WNW,16.1,-,N/A,,Clear,300,2011-10-12 01:55:00
7:55 PM,52.0,41.0,66,29.93,10.0,NW,12.7,-,N/A,,Clear,310,2011-10-12 02:55:00
8:55 PM,51.1,41.0,68,29.95,10.0,WNW,12.7,-,N/A,,Clear,300,2011-10-12 03:55:00
9:55 PM,50.0,39.9,68,29.96,10.0,NW,15.0,-,N/A,,Clear,310,2011-10-12 04:55:00
10:55 PM,48.9,39.0,69,29.99,10.0,Calm,Calm,-,N/A,,Clear,0,2011-10-12 05:55:00
11:55 PM,46.9,39.0,74,30.02,10.0,North,3.5,-,N/A,,Clear,350,2011-10-12 06:55:00